Theta_e
312 306 304 307 309 311 310 309 309 312 319 315 312 315 319 321 321 321 322 325 326 326 330 333 334 337 340 344 349 351 356 363 355 357 354 351 351 351 348 345 342 337 335 338
308 304 309 311 311 309 308 307 308 314 319 317 316 314 319 321 322 321 322 324 326 328 329 333 334 337 338 343 349 351 354 361 358 358 357 350 350 348 344 341 337 338 339 338
305 308 312 309 308 307 307 306 307 309 315 318 316 312 314 318 320 322 323 323 327 327 328 332 335 337 341 343 348 352 354 361 360 356 350 349 343 340 338 331 333 335 335 336
308 311 309 308 306 308 304 309 308 309 308 306 315 302 312 313 315 317 320 322 322 327 330 331 335 338 339 343 349 354 356 360 359 357 349 341 335 329 329 327 332 333 337 336
306 307 307 306 306 309 305 310 308 308 306 307 308 304 306 312 310 313 317 319 322 324 328 330 332 337 339 342 347 354 360 359 356 354 350 339 332 329 327 327 330 333 337 338
309 313 311 309 310 309 309 307 307 308 305 299 304 303 303 307 311 314 317 319 321 322 324 330 333 336 337 342 347 356 356 355 354 352 347 335 333 328 325 329 328 329 332 335
308 309 312 312 307 310 307 304 297 296 296 296 305 302 305 311 314 315 317 318 321 323 324 325 331 333 341 343 350 351 353 350 351 349 343 336 333 331 329 329 328 328 330 331
303 301 309 312 308 305 305 305 297 292 294 297 305 299 304 314 316 318 318 319 320 321 322 327 340 343 340 333 348 350 350 349 350 346 341 338 335 334 329 332 330 330 330 332
303 303 312 312 312 309 305 303 307 302 302 297 301 306 312 314 315 316 316 317 320 325 326 325 328 342 332 327 330 347 351 348 346 344 340 338 338 338 330 335 335 332 336 336
310 302 310 312 311 311 308 309 302 304 296 294 298 302 304 312 314 316 316 318 322 325 323 324 327 343 340 332 347 352 350 346 344 343 341 339 340 339 336 335 335 335 340 335
312 311 306 310 308 305 305 304 306 307 305 298 296 299 316 316 317 318 318 320 321 323 322 325 328 348 351 352 350 348 346 342 342 340 340 339 339 338 335 336 335 338 340 335
312 314 303 304 311 313 310 307 307 300 300 304 303 302 316 318 316 322 320 322 325 329 329 325 328 341 347 347 346 342 340 339 343 343 342 341 339 337 336 336 335 339 336 334
314 311 301 302 307 311 308 308 309 311 315 304 299 303 315 318 318 320 320 320 323 325 325 328 332 332 343 348 348 347 344 341 340 344 342 342 338 337 336 335 335 336 334 332
317 310 306 300 303 308 306 307 308 308 303 302 301 304 309 312 315 317 320 320 320 322 323 324 325 330 336 343 347 345 343 344 342 341 341 340 341 338 334 334 335 334 332 328
315 307 306 307 308 307 306 306 307 307 308 303 304 305 309 312 315 316 323 323 321 321 322 325 328 329 335 339 342 344 343 343 345 342 339 341 341 337 333 332 332 330 329 323
319 308 306 302 306 307 305 307 307 307 307 307 308 308 315 317 317 316 318 321 319 322 324 325 329 333 335 338 340 342 343 344 344 341 339 339 337 334 331 330 329 325 321 318
309 308 306 301 306 305 301 305 306 308 310 309 305 310 314 313 316 317 318 320 320 323 325 326 331 337 337 335 343 342 344 347 344 341 337 335 335 331 329 327 323 318 318 316
308 307 304 300 303 294 306 312 311 308 311 312 312 314 315 315 317 318 319 319 326 325 328 331 332 335 335 336 341 344 345 346 344 340 334 333 331 328 324 321 319 315 316 314
309 306 299 296 297 301 303 307 308 307 308 315 313 315 316 317 318 318 323 324 328 331 332 334 334 336 339 338 339 341 344 345 342 337 334 332 330 324 320 316 315 315 311 311
309 308 303 299 292 291 303 308 312 311 300 315 315 315 317 318 310 314 327 328 331 334 336 335 334 334 338 340 344 343 342 342 338 336 333 332 327 323 318 316 314 311 313 311
300 301 298 298 295 301 309 311 314 299 302 314 314 320 320 315 319 330 329 330 332 334 333 333 334 334 338 339 342 340 342 340 338 336 330 329 324 322 317 312 312 310 310 310
297 297 298 300 293 291 313 312 305 308 313 313 311 311 321 324 326 326 326 326 328 329 329 329 332 335 338 337 340 338 339 341 337 331 327 324 321 317 311 309 309 310 309 308
294 299 297 299 300 311 312 311 315 314 312 312 312 308 311 323 322 323 325 325 326 328 329 331 331 334 333 335 338 337 340 336 332 325 321 317 312 310 309 308 308 307 307 305
298 303 297 300 305 306 309 311 314 314 310 313 312 311 310 310 322 322 324 325 326 328 328 330 328 327 330 331 332 335 334 331 323 314 309 308 307 307 308 308 308 307 305 304
297 299 297 298 302 305 305 310 310 310 312 312 312 311 309 309 317 320 321 321 323 325 328 329 327 327 327 327 327 329 324 319 312 309 307 306 305 306 306 307 307 307 306 305
298 296 295 294 304 303 305 309 309 307 308 309 309 308 311 310 313 314 315 317 319 320 326 326 327 326 325 323 319 318 318 313 308 305 305 304 304 305 305 305 304 299 301 299
Wind_Speed
15 13 14 16 18 20 21 14 17 17 17 13 30 15 16 20 27 18 17 18 19 20 21 19 19 19 16 15 14 13 10 10 10 9 6 5 6 4 4 4 5 4 5 4
16 16 18 18 17 16 14 14 19 16 19 14 29 14 16 22 24 14 17 17 19 19 19 22 22 19 20 18 16 15 12 12 10 8 3 6 6 5 4 5 6 3 5 5
17 18 19 15 19 8 14 15 20 22 13 16 14 13 12 16 15 19 16 17 19 21 22 20 22 21 18 20 20 18 15 14 11 9 9 6 7 5 3 4 3 5 4 4
17 19 17 12 15 14 15 17 20 22 15 12 14 13 14 15 16 15 13 16 14 19 22 21 23 23 22 19 19 18 16 17 12 13 11 13 9 8 6 7 6 6 6 6
16 19 12 17 15 17 15 21 18 18 20 17 16 11 11 12 15 17 16 16 13 16 20 24 25 26 25 20 19 15 17 16 14 13 12 11 9 9 6 8 12 7 6 6
17 18 15 14 16 15 17 19 20 18 13 15 19 16 15 15 15 18 17 13 15 15 15 21 24 24 23 22 15 18 18 15 13 11 11 13 9 10 9 8 9 8 6 4
19 20 17 18 13 15 19 12 10 14 13 13 16 19 14 16 15 15 15 10 11 13 16 15 20 20 13 23 21 17 21 19 17 14 14 11 9 12 11 12 9 11 9 7
15 15 23 18 19 18 19 11 11 15 13 14 16 20 18 21 20 19 13 4 7 8 7 6 17 20 33 23 13 13 17 19 18 16 13 10 13 9 9 11 10 9 9 9
15 22 18 9 15 16 18 16 15 16 17 16 16 20 18 23 9 6 3 3 3 4 6 8 4 20 24 27 26 23 20 18 18 17 13 12 12 11 11 11 8 7 7 9
13 16 18 18 7 16 18 15 15 12 17 18 16 19 12 6 14 7 3 5 5 6 7 6 6 19 19 22 24 20 16 15 17 16 12 11 12 11 9 10 9 8 7 13
13 11 14 18 15 12 12 16 15 13 12 13 13 12 6 8 5 5 9 9 10 8 9 7 5 19 19 18 19 16 16 17 16 13 13 12 12 12 11 10 10 8 8 13
12 4 10 19 20 18 16 16 14 10 13 13 14 14 9 0 9 8 9 8 8 5 2 4 9 20 21 22 21 18 18 16 14 13 14 14 14 14 13 12 13 9 11 12
9 7 10 15 16 17 19 18 16 13 8 15 14 12 10 9 11 8 6 9 10 10 10 8 9 8 14 16 14 15 17 16 15 14 14 13 15 15 14 12 13 12 13 12
2 7 12 14 16 14 14 17 19 17 13 12 15 17 17 18 13 15 10 9 11 10 13 14 12 12 11 14 16 14 13 13 14 16 14 15 15 14 13 12 13 13 14 13
6 13 17 21 23 25 26 26 24 17 19 20 18 22 19 19 14 13 8 6 10 13 10 6 9 13 17 15 14 16 18 18 16 16 11 13 15 15 13 12 11 13 12 12
12 16 18 25 23 24 28 31 29 26 25 21 19 20 15 14 15 18 14 12 12 11 6 7 6 4 10 18 17 17 18 20 19 16 14 14 15 14 14 13 13 12 12 12
14 11 13 18 18 21 32 25 28 27 26 24 21 18 17 18 15 15 16 12 14 11 10 8 6 3 7 7 4 11 14 13 18 15 11 14 15 14 12 11 13 12 13 12
16 15 12 15 16 26 18 18 22 25 23 23 24 21 19 18 18 17 15 16 8 9 7 4 2 6 5 4 1 3 11 12 13 14 14 15 15 15 15 14 13 13 12 12
17 14 12 14 17 26 35 22 19 19 21 21 22 21 21 17 16 14 12 12 3 8 12 8 9 9 7 6 6 3 6 11 12 11 14 17 17 17 17 16 14 13 13 11
21 20 15 14 19 28 26 20 21 25 22 20 22 21 17 13 13 10 9 10 11 13 11 7 7 7 5 3 5 4 4 8 10 11 11 14 17 18 17 15 14 13 12 11
15 8 15 16 19 23 21 22 22 14 10 25 33 20 14 16 9 10 9 10 9 9 10 7 4 5 6 4 2 2 3 5 11 10 12 14 13 15 16 14 12 13 13 11
16 15 14 10 12 15 9 11 7 9 18 18 26 31 20 9 9 8 9 8 9 9 9 5 4 5 5 3 3 3 3 5 8 10 14 14 16 12 13 17 13 13 12 11
11 10 6 9 12 17 20 17 1 7 15 20 19 30 33 17 8 8 8 6 5 6 5 7 3 6 3 2 2 4 4 9 10 13 14 14 13 14 16 17 16 12 12 10
19 19 15 14 11 21 18 14 17 13 10 16 14 23 30 44 9 7 8 6 4 5 4 6 3 2 4 0 1 1 7 12 16 16 15 14 15 14 14 12 12 12 11 9
14 19 20 23 21 21 15 10 12 10 11 14 9 15 20 28 27 9 9 9 6 6 6 4 2 2 2 3 2 5 11 13 14 14 13 13 12 13 14 11 10 11 8 9
16 20 15 17 19 19 21 19 15 12 3 4 8 14 18 21 32 20 9 9 8 6 5 4 5 3 5 6 8 9 11 13 14 12 10 11 11 11 11 10 8 8 10 12
Wind_Direction
220 237 235 234 230 253 267 302 243 262 135 75 304 216 170 154 230 195 205 187 189 190 184 177 187 180 177 179 168 173 167 157 155 146 185 127 122 103 99 90 144 106 116 110
243 223 249 249 252 245 287 291 279 279 164 165 213 241 181 186 214 208 208 200 187 188 193 182 183 186 184 179 172 176 172 160 164 155 146 136 141 135 136 121 124 170 129 170
233 245 219 241 261 240 257 270 274 275 184 190 260 224 244 271 256 194 211 231 195 189 190 189 185 186 187 182 175 172 170 160 163 129 113 96 93 100 120 126 171 133 163 142
253 247 272 274 251 263 252 246 258 277 274 218 228 255 255 244 265 276 266 212 207 197 194 189 190 187 191 185 173 169 165 151 161 148 146 146 165 175 166 167 168 144 172 138
256 244 256 265 252 269 261 275 259 250 273 285 248 228 249 231 230 246 236 243 233 216 198 193 194 194 187 183 168 170 144 155 149 164 162 165 169 169 180 180 148 151 160 150
255 275 266 245 262 242 270 266 269 277 262 253 260 267 264 257 230 235 255 230 226 219 237 208 202 196 182 171 148 142 143 148 156 166 162 188 173 161 181 172 151 157 157 157
254 246 245 264 262 256 244 251 254 246 247 257 255 248 250 260 265 258 256 250 231 222 220 244 211 197 138 148 145 148 151 159 170 181 185 184 179 179 182 167 164 164 165 170
273 243 219 215 220 254 230 225 247 255 249 260 254 251 250 239 243 241 254 356 335 342 326 303 111 113 99 26 354 183 168 165 177 182 183 183 196 188 185 178 173 173 168 173
265 277 288 254 198 216 257 222 237 256 272 278 286 285 251 226 202 209 187 280 281 281 287 286 304 127 149 163 183 220 181 176 177 181 181 179 193 195 189 175 178 175 174 141
235 263 277 290 237 227 221 256 240 222 242 260 274 282 287 244 200 183 203 231 215 224 259 266 347 148 159 168 189 184 179 177 180 175 177 179 193 200 188 177 188 181 142 148
257 251 260 281 271 246 248 240 250 278 273 256 247 264 315 32 113 206 203 211 209 199 221 221 176 151 161 163 175 174 185 190 171 178 174 185 189 194 189 181 189 170 132 138
276 282 250 258 268 274 230 265 249 234 261 271 282 282 310 37 311 176 208 222 197 200 226 302 152 143 160 167 171 182 185 196 180 174 176 185 184 187 190 181 185 153 142 144
349 293 259 253 266 270 269 238 234 245 247 248 267 274 276 338 307 264 248 266 194 184 188 196 165 179 165 161 177 187 185 193 205 198 180 183 181 185 193 182 175 156 149 149
33 266 275 265 255 275 269 259 238 240 248 258 255 279 290 293 278 272 200 234 260 225 204 196 189 177 182 178 177 184 192 211 198 211 194 182 176 181 185 182 175 160 154 143
247 264 272 270 273 283 285 280 272 254 250 239 247 248 248 254 267 277 219 241 241 274 245 245 202 199 181 179 183 181 181 191 205 201 201 176 172 176 176 174 170 155 149 128
327 264 245 262 268 271 271 269 270 271 272 272 253 255 258 254 274 281 278 212 200 234 260 249 248 258 184 182 187 187 189 188 189 190 198 167 169 173 167 166 157 148 129 127
302 311 307 279 281 271 257 258 265 271 271 269 264 270 266 270 251 245 257 261 260 220 212 235 257 69 65 37 145 195 190 181 181 182 163 151 158 153 161 144 131 130 131 128
277 281 283 284 285 264 279 274 270 262 267 272 275 278 275 278 279 279 282 276 263 236 243 202 89 74 85 89 318 353 183 180 174 155 146 153 150 146 138 137 141 141 136 143
257 256 266 262 263 277 266 272 275 278 281 281 280 281 278 280 287 270 287 291 273 103 90 58 54 63 47 22 352 299 198 163 164 157 157 156 146 141 140 144 144 141 140 139
228 227 241 242 249 256 270 265 264 280 279 316 295 280 281 277 270 271 59 35 63 71 70 79 82 93 82 62 17 294 229 150 148 163 158 156 151 147 145 147 143 139 138 130
282 271 230 258 261 259 285 304 298 277 318 330 344 307 289 241 262 120 115 93 73 84 88 87 72 96 87 84 117 245 200 177 148 153 139 145 147 146 136 133 130 134 124 122
270 268 269 231 223 271 346 354 350 337 319 339 338 339 303 285 115 121 117 121 124 132 127 129 111 108 98 120 148 198 193 134 117 128 144 140 143 137 125 127 128 126 126 125
284 323 302 285 295 318 317 314 322 299 303 336 338 339 348 261 160 148 137 135 128 92 90 99 72 103 82 160 190 187 171 133 123 115 122 127 124 129 139 136 135 127 127 132
290 298 287 307 312 323 325 10 15 359 338 330 343 331 337 332 182 116 112 109 95 72 125 117 140 206 158 264 291 5 109 118 117 119 122 127 132 134 135 134 137 137 143 150
290 303 294 289 290 296 300 312 332 352 356 324 301 321 328 314 327 26 49 54 52 38 356 82 353 284 129 95 65 118 114 118 121 126 128 128 132 134 133 132 142 145 151 156
269 272 269 278 300 305 301 301 291 280 296 284 313 319 304 325 311 348 14 14 358 334 191 191 181 238 133 148 109 122 131 128 128 126 131 140 139 137 139 144 133 80 127 158